STARLINK-34374

Last updated on Thu Jul 03 2025 00:02:06 GMT+0000 (Coordinated Universal Time)

1 64308U 25123T 25183.58335648 .00057249 00000+0 92804-3 0 9997 2 64308 69.9998 120.0752 0003361 269.4818 329.2276 15.52475050 4965
UTC large
Height (km)
Speed (km/s)
/
Latitude / Longitude
Inclination (degrees)
Orbital Period (minutes)
Azimuth
Elevation
Range (km)
Doppler Factor

Next 0 passes for location: London (51.5072 / 0.1276)

Sorry there are no passes over London.